Theta_e
325 321 325 321 308 306 300 300 303 302 303 307 308 307 308 308 304 303 328 341 343 344 345 347 349 352 350 349 349 348 347 344 342 341 340 340 339 338 338 339 340 341 342 342 345 345 342 339 337
321 318 321 315 304 298 300 302 301 304 307 309 309 310 308 308 319 326 332 341 344 345 345 346 347 351 350 349 349 348 347 343 342 340 339 338 337 336 335 336 337 339 341 344 344 342 339 337 335
317 314 316 311 304 298 299 302 304 306 309 307 308 313 311 311 320 330 335 343 344 345 346 346 347 351 351 350 349 348 346 344 342 340 338 336 334 333 332 332 334 337 338 341 343 339 336 333 332
318 315 310 304 300 301 301 304 305 307 305 306 309 308 315 321 325 327 337 344 344 345 347 346 348 350 350 348 348 348 347 344 342 340 339 338 335 331 330 329 331 334 335 337 338 334 330 328 329
316 313 304 301 300 301 303 304 307 305 305 307 310 306 312 320 324 330 341 342 343 344 347 347 346 348 348 348 348 347 347 345 342 341 340 339 337 331 328 328 329 331 332 333 331 327 325 325 326
311 310 302 299 299 301 303 305 307 306 304 306 306 308 312 322 325 331 342 341 344 344 346 344 339 342 345 347 346 346 345 345 342 341 339 338 337 332 328 327 328 328 329 329 327 324 322 323 324
309 307 301 300 299 300 303 305 306 306 304 306 310 306 312 319 329 335 342 343 345 345 346 345 344 342 337 341 342 342 343 343 343 342 340 338 337 335 331 330 327 326 326 325 323 321 320 322 324
310 308 299 300 299 300 303 304 305 306 305 308 313 306 307 319 329 337 340 342 343 344 345 344 345 345 345 346 335 337 340 340 340 339 335 332 332 331 330 328 327 325 324 322 321 319 319 321 322
304 302 299 300 298 301 302 302 302 304 305 307 310 307 311 324 327 333 334 336 340 342 343 344 344 344 345 345 339 334 334 335 335 333 329 328 333 332 330 326 326 323 322 321 320 319 319 319 318
305 302 301 302 303 302 302 303 304 303 304 305 306 308 309 321 326 330 331 331 334 338 342 343 344 343 344 344 343 344 343 344 341 339 334 335 335 333 328 323 323 323 321 320 318 316 314 317 318
301 300 299 300 301 302 302 301 304 303 302 306 307 309 308 320 324 328 329 331 333 337 338 337 342 344 344 344 342 344 342 345 343 339 337 334 331 329 326 322 322 322 318 318 317 316 315 316 316
299 299 300 301 303 302 301 302 302 303 307 306 309 309 309 315 321 325 327 330 332 334 334 335 331 329 332 336 343 345 342 341 339 337 337 332 330 328 325 322 319 319 319 318 319 316 314 313 313
300 300 300 302 301 302 301 302 302 302 307 306 305 304 308 312 319 323 327 331 331 329 330 329 332 330 329 330 333 342 342 341 341 337 337 332 332 328 325 322 319 317 317 317 316 314 312 310 309
301 301 301 302 302 302 300 301 301 305 306 304 304 306 307 310 315 321 323 326 327 328 328 328 325 328 328 330 336 338 343 341 342 339 338 334 331 327 323 321 318 317 318 317 316 313 309 306 304
301 299 301 301 301 301 302 300 299 306 303 304 304 306 306 307 312 317 320 323 327 326 326 324 324 324 325 326 328 337 339 336 340 341 340 337 331 326 323 320 318 317 316 317 311 306 301 298 296
299 299 296 299 299 300 301 297 303 302 303 304 306 307 306 306 308 313 319 322 324 324 321 322 318 320 323 324 326 330 333 333 336 335 335 333 329 327 323 319 318 319 314 314 306 302 298 295 295
298 294 294 296 300 299 299 298 303 302 301 303 305 306 306 306 307 308 312 317 319 319 318 318 317 318 320 321 323 330 329 328 326 330 332 331 328 325 324 321 320 314 311 310 306 301 297 295 294
293 293 293 294 297 297 298 297 302 303 301 303 305 306 306 305 306 308 308 311 314 315 314 314 314 316 318 320 321 324 323 320 321 321 322 327 325 324 322 319 315 309 306 303 302 299 298 297 293
294 294 293 296 296 296 297 297 300 303 303 302 304 305 306 306 309 309 309 308 309 311 311 311 312 315 317 317 316 316 315 315 310 314 315 318 319 318 317 312 309 307 304 302 300 296 295 294 293
294 294 293 296 295 295 296 296 300 301 302 303 304 305 306 307 308 308 307 307 306 307 309 310 311 314 316 315 316 316 316 312 309 306 309 310 313 313 312 309 305 308 303 300 298 295 294 293 294
294 293 293 293 294 295 294 293 297 300 300 302 303 304 305 306 307 308 306 305 306 306 307 308 310 313 314 315 315 308 307 303 301 301 303 304 304 306 309 308 304 303 305 301 298 298 298 293 295
291 295 294 293 292 289 293 287 294 298 298 300 302 304 305 306 307 307 306 304 305 306 308 308 310 312 313 314 310 310 309 306 306 306 302 297 301 302 300 300 300 300 304 300 300 301 301 297 294
293 295 294 293 292 290 292 288 293 294 295 298 302 305 306 307 306 305 305 305 305 306 306 308 309 311 312 313 311 311 311 314 314 309 301 298 294 297 300 296 295 298 301 301 303 302 301 299 299
295 294 292 292 291 286 291 289 291 294 296 299 301 303 302 303 303 303 303 303 303 304 305 307 307 309 311 310 311 311 312 311 306 304 300 295 292 290 290 292 295 297 300 299 301 301 299 300 299
294 292 285 284 284 284 289 288 292 297 297 300 302 304 301 302 303 302 301 300 300 301 303 305 306 307 309 308 309 310 311 309 307 302 299 296 290 289 288 289 289 292 294 296 300 299 298 298 296
292 293 288 283 282 286 286 284 292 298 300 301 301 302 300 300 303 303 302 300 300 301 302 304 304 305 308 306 307 309 310 307 306 301 299 299 295 293 291 288 288 290 292 293 296 297 295 294 294
291 288 294 288 281 284 288 293 297 297 298 299 299 300 301 302 302 303 300 299 300 300 302 303 304 305 306 305 306 307 307 305 304 300 297 297 296 290 287 286 287 287 289 291 292 292 289 291 290
293 295 287 287 283 281 286 287 290 295 296 299 299 299 301 302 302 301 299 299 299 300 302 303 304 304 305 304 305 304 303 303 303 299 295 292 292 287 285 285 285 285 286 288 290 289 289 288 288
290 289 289 290 288 285 283 288 298 298 298 298 300 300 300 301 302 301 299 298 299 300 301 302 304 304 303 303 303 302 300 299 297 295 293 290 287 285 284 284 284 284 285 285 288 288 287 286 285
293 292 292 286 284 286 285 288 295 298 297 297 298 299 299 299 301 300 298 298 298 299 300 301 304 303 302 301 301 300 299 295 292 291 289 287 285 284 283 283 283 283 283 284 286 286 286 285 284
Wind_Speed
3 3 1 3 4 3 1 4 1 6 6 2 3 4 2 4 3 4 6 9 12 14 13 14 10 11 13 13 13 12 13 14 14 14 14 14 14 14 14 13 13 13 16 14 17 18 19 19 19
4 1 1 1 4 4 2 4 8 6 3 6 5 3 3 2 2 7 11 8 14 13 12 13 11 12 13 13 13 12 13 13 14 14 15 15 14 15 15 14 13 14 16 14 18 19 18 19 19
1 3 3 1 2 4 2 6 6 6 8 4 4 2 0 3 4 12 4 12 14 13 12 11 11 12 13 13 12 12 12 13 13 14 14 15 15 15 15 15 15 15 16 16 19 20 19 19 19
1 4 3 5 4 0 2 5 6 11 4 4 2 4 3 1 9 3 8 13 14 13 12 12 11 13 13 13 12 12 14 13 14 14 14 15 15 15 15 16 16 16 16 17 19 19 19 19 20
1 3 4 2 2 1 2 2 9 12 5 5 5 3 2 5 3 5 10 12 14 13 12 14 10 12 12 12 12 11 13 14 14 13 14 14 15 15 16 16 17 17 17 18 19 20 20 20 20
3 3 4 8 3 2 3 5 9 9 3 5 5 4 4 5 7 7 11 13 14 13 12 12 10 9 11 11 13 12 13 14 14 14 14 14 15 16 16 17 18 18 18 18 19 20 20 20 20
2 3 6 1 2 3 3 8 10 11 6 6 1 4 4 9 8 8 11 12 13 13 12 11 12 10 8 9 10 11 13 13 13 12 13 13 14 15 16 15 17 18 19 19 19 20 20 20 20
1 2 4 4 4 4 6 9 3 10 7 2 2 5 4 12 11 10 10 11 13 12 13 13 12 12 11 11 9 10 12 11 12 11 12 13 13 14 14 13 16 18 19 19 19 20 20 20 20
1 4 8 5 6 3 7 9 4 1 4 4 5 3 4 10 12 12 11 11 11 11 13 12 12 12 12 12 11 12 14 12 11 12 12 12 10 11 11 12 16 18 18 19 20 20 21 20 19
4 5 7 2 4 3 7 8 7 6 8 7 6 8 4 11 13 16 16 15 14 15 14 13 13 13 12 9 11 11 10 12 12 11 12 6 9 9 11 12 14 16 18 19 19 18 13 10 9
3 6 1 3 3 2 5 6 5 7 9 12 14 12 12 14 14 16 17 17 17 15 12 11 11 10 11 10 7 6 5 6 8 10 8 9 7 8 7 7 8 10 12 10 11 9 7 10 8
4 3 3 2 3 3 4 3 6 11 12 1 9 4 15 17 18 20 19 18 16 15 14 12 9 6 5 3 8 9 9 5 6 8 10 8 6 8 7 5 7 6 6 9 9 7 10 11 11
3 4 4 1 3 3 3 6 8 11 15 6 1 7 13 15 18 16 16 15 15 15 14 13 11 10 7 7 3 5 10 9 9 9 12 9 8 8 6 7 6 7 7 7 8 10 9 10 11
2 1 1 1 2 2 4 3 2 3 5 10 9 12 12 15 17 14 15 17 17 15 16 14 13 12 10 9 10 6 6 10 10 10 12 12 8 8 7 8 7 6 8 7 9 10 10 9 9
2 3 4 7 3 3 3 9 16 13 3 7 13 13 13 14 13 20 18 19 18 15 15 15 14 12 11 12 8 8 7 4 7 10 15 16 12 11 10 8 7 7 8 11 10 11 9 9 8
0 2 5 4 5 1 6 11 6 1 10 17 15 14 13 15 17 17 16 17 16 15 16 15 10 12 12 10 9 7 7 6 6 7 8 13 13 13 10 8 8 10 8 10 8 9 9 8 8
1 5 6 4 4 2 9 7 4 1 5 11 11 13 14 15 15 17 18 17 17 17 16 15 14 14 13 11 9 10 8 6 5 5 7 14 13 13 11 9 10 10 9 8 10 8 10 9 9
6 6 4 7 3 4 8 19 16 10 9 13 15 14 14 16 19 17 19 18 17 17 16 15 13 15 14 9 8 7 6 4 4 4 4 10 9 13 10 8 10 9 9 8 8 11 8 11 11
2 3 6 6 3 4 12 20 21 16 15 20 20 20 20 21 17 14 15 17 17 17 17 18 17 16 12 10 10 8 9 5 3 3 5 6 8 10 12 9 11 10 10 11 11 12 15 11 12
6 10 13 12 3 6 13 21 21 19 22 20 21 22 23 21 18 16 14 16 18 20 19 19 18 17 15 11 10 7 8 4 2 3 5 5 7 10 10 12 11 13 11 12 12 15 11 10 12
11 14 11 10 3 8 12 16 16 10 13 17 22 24 24 24 22 17 15 17 17 19 20 20 19 18 16 15 9 6 5 3 3 4 4 5 5 5 10 12 11 12 11 12 14 16 16 12 11
15 13 10 8 5 9 2 11 18 14 17 13 18 18 22 18 16 15 14 16 19 19 18 19 19 19 17 18 14 16 9 7 6 6 5 4 5 7 6 7 12 13 11 12 12 13 13 13 13
3 6 7 3 6 7 11 9 8 2 8 15 19 18 14 13 13 13 13 15 15 14 17 17 17 18 17 17 16 13 13 10 9 8 9 7 4 4 9 10 8 9 10 11 14 15 13 11 11
13 7 4 2 1 11 9 10 10 7 10 7 8 11 2 4 5 7 5 6 8 10 12 14 18 18 18 17 18 17 17 12 9 9 8 6 4 3 5 8 10 10 10 12 12 13 14 11 10
4 8 4 5 6 12 6 10 19 15 13 13 14 12 1 1 1 2 4 6 8 10 12 13 16 17 17 17 17 16 15 14 14 11 9 11 6 4 7 9 9 9 9 9 13 12 12 11 9
13 10 7 7 6 8 4 12 7 13 13 17 16 16 9 9 9 6 4 4 6 9 11 13 15 16 16 16 16 15 15 10 10 11 8 8 10 9 10 9 9 10 11 11 12 9 8 8 6
8 12 9 6 3 5 11 20 14 11 15 12 15 10 10 8 10 8 3 5 6 8 11 12 13 14 15 16 14 15 14 14 12 13 9 8 9 7 9 9 9 7 9 12 12 8 9 9 8
9 11 5 5 6 9 11 12 13 6 11 14 13 11 10 8 6 4 3 5 5 7 8 11 13 14 14 15 15 13 14 14 12 12 11 10 9 9 10 10 8 9 9 10 13 11 11 12 8
9 11 3 3 5 5 7 12 4 7 6 10 5 4 4 5 7 5 4 5 5 6 8 11 13 15 15 16 15 15 13 12 10 10 10 10 9 9 11 10 10 10 11 11 13 12 14 13 11
8 16 20 8 6 6 5 19 6 3 2 4 2 1 0 2 6 5 3 4 5 7 8 11 13 14 15 16 16 16 14 12 11 10 11 10 11 10 11 10 9 9 9 10 13 14 14 15 14
Wind_Direction
332 344 271 232 239 266 183 156 354 162 179 129 143 215 240 14 324 20 137 142 155 157 161 169 153 143 137 139 132 126 112 108 101 100 99 97 95 92 87 82 78 86 83 83 89 84 80 76 73
345 304 218 103 257 263 149 146 196 174 83 130 140 164 199 102 92 117 144 169 159 154 161 162 150 145 145 144 138 129 117 112 106 104 99 96 92 88 86 87 85 85 89 88 90 85 81 76 73
74 332 251 290 268 274 308 180 167 127 127 171 155 267 143 113 133 144 109 160 159 155 159 146 149 146 145 146 145 135 121 117 111 104 100 96 91 88 88 86 87 86 86 81 85 82 77 77 76
294 183 132 253 267 208 320 165 157 146 186 218 244 179 169 27 147 115 152 160 164 159 161 142 152 149 154 152 150 141 128 125 118 110 104 96 92 93 91 91 91 90 87 87 84 84 80 79 78
42 236 216 243 263 278 222 205 183 171 157 168 187 142 154 170 162 163 160 173 171 165 163 161 162 158 157 155 152 146 136 129 123 114 105 102 101 99 96 93 92 91 89 87 86 85 82 82 80
186 281 220 238 209 221 223 180 185 194 173 144 210 175 146 136 186 166 163 175 172 168 166 163 165 161 158 158 159 152 146 135 131 122 114 107 103 100 97 96 95 94 93 92 91 88 88 87 85
267 224 234 245 245 224 192 160 198 192 192 202 284 215 118 179 169 168 168 168 174 170 172 172 173 170 155 158 159 155 147 141 134 128 116 103 100 100 99 98 100 99 99 98 97 95 93 91 88
166 218 189 214 221 236 158 176 215 211 203 87 225 223 167 173 158 163 166 174 177 178 181 178 176 175 172 169 162 156 148 145 139 127 118 108 102 101 100 103 102 103 103 103 102 99 94 91 84
236 218 230 222 186 201 150 195 154 21 209 211 200 263 72 142 153 165 168 177 183 185 189 183 179 181 180 176 169 162 158 150 141 136 134 146 124 119 113 94 106 107 106 105 105 102 99 94 83
224 232 230 188 197 208 178 211 178 197 199 216 219 202 157 169 176 180 186 186 189 186 186 185 185 186 188 176 176 174 168 170 168 165 156 131 132 124 114 103 106 109 107 106 105 103 106 108 103
148 244 234 201 207 217 187 214 196 215 221 226 219 195 180 184 194 198 199 197 194 189 183 189 193 189 195 181 178 176 178 190 171 162 160 146 127 133 133 130 129 125 128 118 114 109 91 95 96
212 198 200 132 172 178 198 146 222 219 234 318 229 185 180 192 199 204 203 201 193 190 189 187 182 179 186 186 196 193 182 168 169 170 163 153 150 149 146 141 138 136 135 124 115 103 101 95 92
230 177 189 180 178 216 159 222 246 242 243 227 237 197 204 207 211 210 210 204 197 196 188 189 185 184 188 191 208 204 197 183 180 175 178 165 164 158 148 146 142 138 134 131 124 122 112 103 98
65 210 267 238 229 247 248 248 274 238 276 223 227 231 223 218 216 206 207 206 202 198 193 188 193 194 186 205 200 204 205 204 192 180 187 180 164 156 153 151 148 143 144 138 133 125 117 102 100
66 255 261 215 201 226 226 238 235 245 218 241 233 236 234 229 219 217 211 211 202 201 196 197 198 195 199 202 205 212 207 200 195 195 191 186 171 162 155 151 153 151 145 132 122 115 109 108 101
177 250 246 136 181 162 222 256 247 183 231 251 247 245 238 235 223 226 220 214 207 203 203 201 197 201 205 210 207 202 213 204 205 186 189 180 170 164 162 156 160 157 144 137 134 130 115 113 118
205 250 231 287 196 170 221 274 270 232 242 264 262 254 248 248 230 229 219 215 208 207 204 203 202 204 205 211 214 213 204 203 196 194 192 191 169 164 166 164 163 152 149 139 141 131 130 129 125
211 223 221 251 138 219 240 260 261 257 260 266 269 264 253 246 241 229 218 215 211 208 207 205 201 203 199 199 205 207 206 195 193 192 185 185 175 166 163 157 156 145 142 135 141 137 137 135 130
122 221 260 260 168 254 254 267 272 271 264 263 262 258 255 250 246 233 220 211 209 208 205 205 200 200 195 194 194 199 208 193 182 198 181 174 169 164 162 154 150 150 155 154 150 140 141 141 138
222 259 260 280 223 224 271 268 276 268 257 255 261 261 257 256 247 232 220 211 207 205 206 205 205 199 199 199 199 209 190 197 171 165 193 185 171 168 169 160 163 171 141 150 158 151 144 150 171
227 235 248 263 306 226 291 265 250 263 259 260 258 256 261 255 256 246 223 216 210 210 206 205 202 200 199 198 182 155 148 98 154 199 195 194 166 171 171 170 167 170 158 169 169 164 161 164 183
239 212 237 254 280 276 248 288 281 268 265 255 258 247 250 260 256 257 238 219 212 213 207 206 202 200 198 195 189 196 193 183 193 185 179 168 163 176 158 167 167 160 161 165 185 176 173 165 173
230 143 180 184 235 314 229 263 242 168 258 251 258 260 267 266 260 254 238 235 223 206 203 204 203 202 198 195 201 197 203 204 195 185 174 172 156 173 175 164 158 165 175 176 189 179 182 183 176
139 102 78 90 223 260 239 223 271 201 232 253 252 265 275 266 270 256 241 233 222 198 202 202 202 204 201 200 204 205 205 200 188 182 182 176 167 167 175 174 180 176 180 179 184 185 184 183 187
198 160 213 229 198 253 92 212 253 286 249 249 265 268 179 237 211 233 221 201 197 192 195 200 205 208 204 204 205 207 211 198 202 184 184 180 171 187 195 179 176 175 179 178 179 185 185 186 188
195 200 203 223 226 278 107 238 259 243 271 246 266 278 281 267 272 256 257 223 199 192 193 196 201 208 201 202 205 204 208 203 203 188 179 193 192 189 180 187 186 181 173 168 178 179 175 174 179
169 213 254 271 115 276 253 264 256 233 250 251 245 249 268 253 254 254 206 204 199 194 196 200 200 210 201 206 205 205 199 204 198 190 182 190 190 173 168 177 178 162 169 166 170 162 157 158 156
212 143 167 213 222 239 255 264 254 235 239 247 254 250 251 234 236 224 202 193 194 197 199 202 202 205 203 207 207 206 200 202 201 190 188 180 176 162 164 168 171 158 167 168 170 158 159 157 154
176 209 210 230 225 242 273 258 173 235 280 268 280 274 288 251 220 195 182 194 190 198 199 205 207 201 198 204 206 205 198 193 187 188 184 181 166 163 170 170 169 167 171 169 166 161 157 157 152
242 223 203 204 193 241 281 265 143 85 14 302 219 269 288 222 182 179 187 191 196 206 211 217 216 210 204 201 199 202 194 182 179 183 179 168 169 168 168 162 167 169 171 175 167 165 163 161 160